Time,TemperatureF,DewpointF,PressureIn,WindDirection,WindDirectionDegrees,WindSpeedMPH,WindSpeedGustMPH,Humidity,HourlyPrecipIn,Conditions,Clouds,dailyrainin,SoftwareType,DateUTC
2013-09-27 00:17:00,72.7,57.5,29.78,South,180,0.0,6.5,59,0.00,,,0.00,open2300-1.11,2013-09-27 05:17:00,
2013-09-27 01:17:00,71.8,57.2,29.78,ENE,67,0.0,7.8,60,0.00,,,0.00,open2300-1.11,2013-09-27 06:17:00,
2013-09-27 02:17:00,70.9,57.2,29.79,SE,135,0.0,6.0,62,0.00,,,0.00,open2300-1.11,2013-09-27 07:17:00,
2013-09-27 03:17:00,70.5,57.3,29.78,ESE,112,0.0,7.4,63,0.00,,,0.00,open2300-1.11,2013-09-27 08:17:00,
2013-09-27 04:17:00,70.7,57.5,29.78,ESE,112,0.0,12.3,63,0.00,,,0.00,open2300-1.11,2013-09-27 09:17:00,
2013-09-27 05:17:00,70.5,57.3,29.78,South,180,0.0,6.0,63,0.00,,,0.00,open2300-1.11,2013-09-27 10:17:00,
2013-09-27 06:17:00,70.0,57.2,29.78,South,180,0.0,9.8,64,0.00,,,0.00,open2300-1.11,2013-09-27 11:17:00,
2013-09-27 07:17:00,69.1,56.3,29.80,SSE,157,0.0,6.7,64,0.00,,,0.00,open2300-1.11,2013-09-27 12:17:00,
2013-09-27 08:17:00,68.9,56.6,29.80,SSE,157,0.0,6.5,65,0.00,,,0.00,open2300-1.11,2013-09-27 13:17:00,
2013-09-27 09:17:00,70.7,57.5,29.81,WNW,292,0.0,10.5,63,0.00,,,0.00,open2300-1.11,2013-09-27 14:17:00,
2013-09-27 10:17:00,74.8,58.6,29.81,SE,135,11.2,11.2,57,0.00,,,0.00,open2300-1.11,2013-09-27 15:17:00,
2013-09-27 11:17:00,80.2,60.5,29.81,SSE,157,0.0,16.3,51,0.00,,,0.00,open2300-1.11,2013-09-27 16:17:00,
2013-09-27 12:17:00,82.8,60.4,29.78,SSE,157,0.0,10.1,47,0.00,,,0.00,open2300-1.11,2013-09-27 17:17:00,
2013-09-27 13:17:00,86.5,61.4,29.78,SSE,157,0.0,8.1,43,0.00,,,0.00,open2300-1.11,2013-09-27 18:17:00,
2013-09-27 14:17:00,88.3,62.3,29.77,SSE,157,8.1,10.3,42,0.00,,,0.00,open2300-1.11,2013-09-27 19:17:00,
2013-09-27 15:17:00,88.5,62.5,29.76,SW,225,12.1,14.1,42,0.00,,,0.00,open2300-1.11,2013-09-27 20:17:00,
2013-09-27 16:17:00,89.2,61.8,29.75,SSE,157,0.0,16.3,40,0.00,,,0.00,open2300-1.11,2013-09-27 21:17:00,
2013-09-27 17:17:00,86.2,60.4,29.76,ESE,112,0.0,9.8,42,0.00,,,0.00,open2300-1.11,2013-09-27 22:17:00,
2013-09-27 18:17:00,84.0,59.7,29.75,ESE,112,0.0,3.4,44,0.00,,,0.00,open2300-1.11,2013-09-27 23:17:00,
2013-09-27 19:17:00,81.1,58.3,29.75,South,180,0.0,7.4,46,0.00,,,0.00,open2300-1.11,2013-09-28 00:17:00,
2013-09-27 20:17:00,78.6,57.2,29.76,SE,135,0.0,0.0,48,0.00,,,0.00,open2300-1.11,2013-09-28 01:17:00,
2013-09-27 21:17:00,76.8,56.9,29.76,East,90,0.0,0.0,50,0.00,,,0.00,open2300-1.11,2013-09-28 02:17:00,
2013-09-27 22:17:00,75.0,55.7,29.75,ENE,67,0.0,0.0,51,0.00,,,0.00,open2300-1.11,2013-09-28 03:17:00,
2013-09-27 23:17:00,74.5,56.2,29.73,ESE,112,0.0,0.0,53,0.00,,,0.00,open2300-1.11,2013-09-28 04:17:00,